Previsão horária em Al Mafraq

Hoje, 16 Junho, Quarta-feira

Tempo Temperatura Precipitação Vento Pressão Humidade
00:00 +18°C° 0 mm 3 m/s 700 mmHg 76%
01:00 +18°C° 0 mm 3 m/s 700 mmHg 77%
02:00 +18°C° 0 mm 3 m/s 699 mmHg 78%
03:00 +17°C° 0 mm 3 m/s 700 mmHg 79%
04:00 +17°C° 0 mm 3 m/s 700 mmHg 81%
05:00 +17°C° 0 mm 3 m/s 700 mmHg 83%
06:00 +18°C° 0 mm 3 m/s 700 mmHg 74%
07:00 +20°C° 0 mm 4 m/s 701 mmHg 65%
08:00 +22°C° 0 mm 5 m/s 701 mmHg 56%
09:00 +23°C° 0 mm 5 m/s 701 mmHg 49%
10:00 +26°C° 0 mm 6 m/s 701 mmHg 42%
11:00 +28°C° 0 mm 7 m/s 702 mmHg 35%
12:00 +28°C° 0 mm 8 m/s 701 mmHg 33%
13:00 +29°C° 0 mm 9 m/s 701 mmHg 31%
14:00 +31°C° 0 mm 10 m/s 701 mmHg 29%
15:00 +28°C° 0 mm 10 m/s 701 mmHg 33%
16:00 +27°C° 0 mm 10 m/s 701 mmHg 36%
17:00 +26°C° 0 mm 10 m/s 701 mmHg 40%
18:00 +23°C° 0 mm 9 m/s 702 mmHg 50%
19:00 +21°C° 0 mm 8 m/s 702 mmHg 60%
20:00 +20°C° 0 mm 7 m/s 702 mmHg 69%
21:00 +19°C° 0 mm 6 m/s 702 mmHg 74%
22:00 +17°C° 0 mm 6 m/s 702 mmHg 78%
23:00 +17°C° 0 mm 5 m/s 702 mmHg 83%

Amanhã, 17 Junho, Quinta-feira

Tempo Temperatura Precipitação Vento Pressão Humidade
00:00 +16°C° 0 mm 5 m/s 702 mmHg 84%
01:00 +16°C° 0 mm 5 m/s 702 mmHg 85%
02:00 +16°C° 0 mm 5 m/s 701 mmHg 86%
03:00 +17°C° 0 mm 4 m/s 702 mmHg 86%
04:00 +15°C° 0 mm 4 m/s 702 mmHg 85%
05:00 +15°C° 0 mm 4 m/s 702 mmHg 85%
06:00 +18°C° 0 mm 4 m/s 702 mmHg 73%
07:00 +19°C° 0 mm 4 m/s 702 mmHg 62%
08:00 +21°C° 0 mm 4 m/s 703 mmHg 50%
09:00 +23°C° 0 mm 5 m/s 703 mmHg 43%
10:00 +26°C° 0 mm 5 m/s 703 mmHg 37%
11:00 +28°C° 0 mm 6 m/s 703 mmHg 30%
12:00 +28°C° 0 mm 7 m/s 703 mmHg 29%
13:00 +29°C° 0 mm 7 m/s 703 mmHg 28%
14:00 +31°C° 0 mm 8 m/s 703 mmHg 27%
15:00 +29°C° 0 mm 8 m/s 702 mmHg 31%
16:00 +28°C° 0 mm 8 m/s 702 mmHg 34%
17:00 +27°C° 0 mm 7 m/s 702 mmHg 38%
18:00 +24°C° 0 mm 6 m/s 702 mmHg 47%
19:00 +22°C° 0 mm 5 m/s 702 mmHg 56%
20:00 +20°C° 0 mm 4 m/s 702 mmHg 64%
21:00 +20°C° 0 mm 4 m/s 702 mmHg 68%
22:00 +19°C° 0 mm 3 m/s 702 mmHg 72%
23:00 +18°C° 0 mm 3 m/s 702 mmHg 77%

Depois de amanhã, 18 Junho, Sexta-feira

Tempo Temperatura Precipitação Vento Pressão Humidade
00:00 +18°C° 0 mm 3 m/s 702 mmHg 80%
01:00 +17°C° 0 mm 3 m/s 701 mmHg 83%
02:00 +17°C° 0 mm 3 m/s 701 mmHg 86%
03:00 +17°C° 0 mm 3 m/s 701 mmHg 87%
04:00 +16°C° 0 mm 2 m/s 701 mmHg 88%
05:00 +16°C° 0 mm 2 m/s 701 mmHg 89%
06:00 +18°C° 0 mm 3 m/s 701 mmHg 77%
07:00 +20°C° 0 mm 3 m/s 701 mmHg 66%
08:00 +22°C° 0 mm 3 m/s 702 mmHg 54%
09:00 +25°C° 0 mm 4 m/s 702 mmHg 46%
10:00 +27°C° 0 mm 5 m/s 702 mmHg 38%
11:00 +29°C° 0 mm 5 m/s 702 mmHg 29%
12:00 +32°C° 0 mm 6 m/s 701 mmHg 27%
13:00 +33°C° 0 mm 6 m/s 701 mmHg 25%
14:00 +34°C° 0 mm 7 m/s 701 mmHg 22%
15:00 +32°C° 0 mm 7 m/s 701 mmHg 26%
16:00 +30°C° 0 mm 7 m/s 701 mmHg 29%
17:00 +29°C° 0 mm 7 m/s 700 mmHg 32%
18:00 +27°C° 0 mm 6 m/s 700 mmHg 40%
19:00 +25°C° 0 mm 5 m/s 700 mmHg 47%
20:00 +22°C° 0 mm 4 m/s 700 mmHg 54%
21:00 +22°C° 0 mm 3 m/s 700 mmHg 57%
22:00 +21°C° 0 mm 3 m/s 700 mmHg 59%
23:00 +20°C° 0 mm 3 m/s 700 mmHg 61%

19 Junho, Sábado

Tempo Temperatura Precipitação Vento Pressão Humidade
00:00 +20°C° 0 mm 3 m/s 700 mmHg 64%
01:00 +19°C° 0 mm 3 m/s 700 mmHg 66%
02:00 +19°C° 0 mm 3 m/s 699 mmHg 69%
03:00 +18°C° 0 mm 3 m/s 699 mmHg 72%
04:00 +18°C° 0 mm 3 m/s 700 mmHg 76%
05:00 +17°C° 0 mm 3 m/s 700 mmHg 79%
06:00 +19°C° 0 mm 3 m/s 700 mmHg 67%
07:00 +21°C° 0 mm 3 m/s 700 mmHg 56%
08:00 +23°C° 0 mm 4 m/s 700 mmHg 44%
09:00 +26°C° 0 mm 4 m/s 701 mmHg 37%
10:00 +28°C° 0 mm 5 m/s 701 mmHg 31%
11:00 +32°C° 0 mm 5 m/s 701 mmHg 24%
12:00 +32°C° 0 mm 6 m/s 701 mmHg 23%
13:00 +33°C° 0 mm 6 m/s 700 mmHg 21%
14:00 +34°C° 0 mm 7 m/s 700 mmHg 19%
15:00 +33°C° 0 mm 7 m/s 700 mmHg 22%
16:00 +32°C° 0 mm 7 m/s 700 mmHg 26%
17:00 +30°C° 0 mm 7 m/s 700 mmHg 29%
18:00 +28°C° 0 mm 6 m/s 700 mmHg 38%
19:00 +26°C° 0 mm 5 m/s 700 mmHg 46%
20:00 +23°C° 0 mm 4 m/s 700 mmHg 55%
21:00 +22°C° 0 mm 4 m/s 700 mmHg 57%
22:00 +21°C° 0 mm 3 m/s 700 mmHg 60%
23:00 +21°C° 0 mm 3 m/s 700 mmHg 62%

20 Junho, Domingo

Tempo Temperatura Precipitação Vento Pressão Humidade
00:00 +20°C° 0 mm 3 m/s 700 mmHg 64%
01:00 +20°C° 0 mm 3 m/s 700 mmHg 67%
02:00 +19°C° 0 mm 2 m/s 700 mmHg 69%
03:00 +19°C° 0 mm 3 m/s 700 mmHg 70%
04:00 +19°C° 0 mm 3 m/s 700 mmHg 71%
05:00 +18°C° 0 mm 3 m/s 700 mmHg 72%
06:00 +20°C° 0 mm 3 m/s 700 mmHg 60%
07:00 +24°C° 0 mm 3 m/s 701 mmHg 47%
08:00 +26°C° 0 mm 3 m/s 701 mmHg 35%
09:00 +28°C° 0 mm 3 m/s 701 mmHg 29%
10:00 +30°C° 0 mm 3 m/s 702 mmHg 22%
11:00 +33°C° 0 mm 3 m/s 702 mmHg 16%
12:00 +34°C° 0 mm 4 m/s 701 mmHg 15%
13:00 +35°C° 0 mm 5 m/s 701 mmHg 15%
14:00 +36°C° 0 mm 5 m/s 701 mmHg 14%
15:00 +35°C° 0 mm 6 m/s 701 mmHg 17%
16:00 +34°C° 0 mm 6 m/s 701 mmHg 20%
17:00 +33°C° 0 mm 7 m/s 701 mmHg 23%
18:00 +30°C° 0 mm 6 m/s 701 mmHg 27%
19:00 +28°C° 0 mm 5 m/s 701 mmHg 32%
20:00 +26°C° 0 mm 4 m/s 701 mmHg 36%
21:00 +25°C° 0 mm 4 m/s 701 mmHg 38%
22:00 +24°C° 0 mm 3 m/s 701 mmHg 39%
23:00 +22°C° 0 mm 3 m/s 701 mmHg 41%

21 Junho, Segunda-feira

Tempo Temperatura Precipitação Vento Pressão Humidade
00:00 +22°C° 0 mm 3 m/s 701 mmHg 42%
01:00 +21°C° 0 mm 3 m/s 700 mmHg 43%
02:00 +21°C° 0 mm 3 m/s 700 mmHg 44%
03:00 +21°C° 0 mm 2 m/s 700 mmHg 45%
04:00 +20°C° 0 mm 2 m/s 700 mmHg 45%
05:00 +20°C° 0 mm 2 m/s 700 mmHg 45%
06:00 +23°C° 0 mm 2 m/s 701 mmHg 37%
07:00 +26°C° 0 mm 3 m/s 701 mmHg 29%
08:00 +28°C° 0 mm 3 m/s 702 mmHg 21%
09:00 +30°C° 0 mm 3 m/s 702 mmHg 18%
10:00 +33°C° 0 mm 3 m/s 702 mmHg 15%
11:00 +35°C° 0 mm 4 m/s 702 mmHg 11%
12:00 +36°C° 0 mm 4 m/s 701 mmHg 12%
13:00 +36°C° 0 mm 5 m/s 701 mmHg 12%
14:00 +38°C° 0 mm 6 m/s 701 mmHg 12%
15:00 +36°C° 0 mm 7 m/s 701 mmHg 15%
16:00 +34°C° 0 mm 7 m/s 701 mmHg 18%
17:00 +33°C° 0 mm 8 m/s 701 mmHg 21%
18:00 +30°C° 0 mm 6 m/s 701 mmHg 25%
19:00 +28°C° 0 mm 5 m/s 701 mmHg 29%
20:00 +26°C° 0 mm 3 m/s 701 mmHg 33%
21:00 +25°C° 0 mm 3 m/s 701 mmHg 32%
22:00 +25°C° 0 mm 3 m/s 701 mmHg 31%
23:00 +24°C° 0 mm 3 m/s 701 mmHg 30%
Mostrar mais